Date,TemperatureHighF,TemperatureAvgF,TemperatureLowF,DewpointHighF,DewpointAvgF,DewpointLowF,HumidityHigh,HumidityAvg,HumidityLow,PressureMaxIn,PressureMinIn,WindSpeedMaxMPH,WindSpeedAvgMPH,GustSpeedMaxMPH,PrecipitationSumIn
2013-10-1,82.8,71.8,63.8,70.5,65.8,60.0,93,82,62,30.00,29.91,5,0,9,0.00
2013-10-2,84.1,73.4,64.8,71.7,67.0,62.2,94,82,53,30.04,29.91,4,0,7,0.00
2013-10-3,86.8,74.3,68.6,70.4,67.4,61.5,91,80,53,29.92,29.81,11,0,24,0.44
2013-10-4,87.9,77.6,69.7,71.6,68.0,65.3,92,74,48,29.92,29.84,8,0,11,0.02
2013-10-5,77.1,67.0,53.3,69.9,61.7,48.6,89,83,74,29.92,29.83,13,1,15,0.05
2013-10-6,53.7,50.2,44.2,48.6,44.0,38.9,90,80,62,29.90,29.83,13,2,18,0.04
2013-10-7,69.9,57.4,51.0,51.5,47.8,45.9,87,72,43,30.14,29.90,8,1,13,0.00
2013-10-8,76.6,60.9,45.0,57.0,48.1,42.5,93,67,35,30.19,30.10,7,0,13,0.00
2013-10-9,72.7,59.3,44.5,54.5,48.2,41.8,93,69,41,30.18,30.08,5,0,6,0.00
2013-10-10,78.9,62.7,46.5,60.6,53.0,44.0,93,74,44,30.15,29.98,6,0,12,0.00
2013-10-11,79.3,67.4,55.1,61.6,56.7,51.9,92,71,42,30.01,29.85,9,1,14,0.00
2013-10-12,72.5,64.7,51.4,61.3,53.0,43.0,87,68,35,30.21,29.90,9,1,13,0.00
2013-10-13,69.9,54.6,41.5,47.2,40.8,32.3,91,65,25,30.41,30.21,7,0,9,0.00
2013-10-14,67.4,54.6,40.1,53.8,43.2,37.1,91,68,43,30.37,30.04,6,0,13,0.02
2013-10-15,67.7,60.9,52.5,62.0,55.1,42.3,92,82,66,30.04,29.87,12,1,15,0.24
2013-10-16,54.7,50.3,44.9,45.0,42.0,39.7,84,73,63,30.06,29.98,11,1,15,0.00
2013-10-17,64.1,53.5,46.1,48.5,44.0,39.6,91,72,41,30.02,29.89,12,1,20,0.02
2013-10-18,56.1,49.1,42.3,43.7,39.7,34.8,89,71,47,30.08,29.92,9,2,15,0.02
2013-10-19,57.7,47.2,38.2,41.4,37.3,34.1,90,71,42,30.03,29.91,12,2,18,0.06
2013-10-20,72.8,57.9,45.6,44.4,40.2,37.7,76,54,29,29.94,29.80,8,1,15,0.00
2013-10-21,57.0,48.5,37.8,44.5,36.6,30.9,81,64,46,30.06,29.89,11,2,15,0.00
2013-10-22,59.0,43.7,34.2,46.3,37.7,30.6,90,80,61,30.06,29.79,16,2,18,0.09
2013-10-23,48.5,41.3,35.8,36.8,32.4,26.1,88,72,43,30.17,30.05,13,2,15,0.00
2013-10-24,45.4,39.0,28.5,36.1,28.8,24.1,86,68,44,30.44,30.15,15,2,20,0.00
2013-10-25,55.6,40.4,26.1,34.8,26.7,23.0,90,63,31,30.52,30.20,6,0,12,0.00
2013-10-26,61.4,48.4,34.0,41.0,32.0,25.8,80,55,29,30.20,30.04,14,2,22,0.00
2013-10-27,60.2,42.4,27.9,34.9,29.3,24.8,89,65,29,30.15,30.01,6,0,8,0.00
2013-10-28,66.9,47.0,30.3,42.6,34.6,27.3,90,67,30,30.25,30.06,5,0,7,0.00
2013-10-29,57.5,50.2,41.7,53.7,46.0,37.7,93,86,73,30.25,30.06,5,0,9,0.17
2013-10-30,69.6,62.6,55.7,66.3,60.2,53.7,94,92,85,30.06,29.77,2,0,19,0.35
2013-10-31,65.1,57.4,47.2,62.7,54.5,43.7,93,90,84,29.77,29.40,12,2,20,0.83